[[{"header":{"parameterUnit":"m.s-1","parameterCategory":1,"la1":30.2991,"la2":30.254,"lo1":-89.0895,"lo2":-89.0444,"dy":0.0017,"dx":0.0017,"nx":28,"ny":28,"refTime":"2024-10-06T03:00:00:Z","depth":0,"parameterNumber":2,"parameterNumberName":"U-component_of_WINDS"},"data":[0,0,0,0,0,0,0,0,0,0,0,0,0,0,0,0,0,0,0,0,0,0,0,0,0,0,0,0,0,0,0,0,0,0,0,0,0,0,0,0,0,0,0,0,0,0,0,0,0,0,0,0,0,0,0,0,0,0,-3.8051,-3.8051,0,-3.8108,-3.8109,-3.811,-3.7984,-3.798,-3.7976,-3.7972,-3.8033,-3.8038,-3.8043,0,0,0,0,0,0,0,0,0,0,0,0,0,-3.7834,-3.7839,-3.8051,-3.8051,-3.8052,-3.8108,-3.8109,-3.811,-3.7985,-3.798,-3.7975,-3.797,-3.8031,-3.8037,-3.8044,0,0,0,0,0,0,0,0,0,0,0,0,0,-3.7914,-3.784,-3.8051,-3.7997,-3.7992,-3.8108,-3.8109,-3.811,-3.7986,-3.798,-3.7974,-3.7968,-3.8029,-3.8037,-3.8045,-3.8216,0,0,-3.8069,-3.8073,0,0,0,0,0,0,0,0,-3.7909,-3.7922,-3.8004,-3.8,-3.7996,-3.8033,-3.8055,-3.8146,-3.7987,-3.7988,-3.7972,-3.7965,-3.8038,-3.8045,-3.8069,-3.8219,-3.8222,-3.807,-3.8075,-3.8079,-3.8081,0,0,0,0,0,0,0,-3.7904,-3.7919,-3.8073,-3.8005,-3.8,-3.797,-3.7974,-3.8071,-3.8047,-3.7988,-3.7979,-3.7987,-3.8035,-3.8062,-3.8069,-3.8223,-3.807,-3.8077,-3.8082,-3.8085,-3.8516,-3.8523,0,0,0,0,0,0,-3.7905,-3.7915,-3.8072,-3.8075,-3.7937,-3.7979,-3.7984,-3.8027,-3.8045,-3.8042,-3.7992,-3.7981,-3.8051,-3.806,-3.8071,-3.8273,-3.8079,-3.8086,-3.8091,-3.851,-3.8518,-3.8525,0,0,0,0,0,0,-3.7901,-3.792,-3.8069,-3.7993,-3.8009,-3.7989,-3.8039,-3.8031,-3.8058,-3.8049,-3.8044,-3.8025,-3.8046,-3.806,-3.8181,-3.8274,-3.809,-3.8097,-3.8502,-3.8512,-3.8522,-3.8679,0,0,0,0,0,0,-3.7895,-3.7919,-3.7984,-3.7995,-3.8014,-3.8178,-3.8044,-3.8037,-3.8072,-3.8058,-3.8077,-3.8075,-3.8043,-3.817,-3.8189,-3.8281,-3.8103,-3.8494,-3.8507,-3.8518,-3.8666,-3.8693,-3.8717,0,0,0,0,0,-3.7888,-3.8027,-3.7988,-3.8008,-3.8094,-3.8184,-3.8195,-3.8154,-3.808,-3.8145,-3.8139,-3.8074,-3.826,-3.8183,-3.8204,-3.83,-3.8488,-3.8503,-3.8517,-3.8654,-3.8688,-3.8716,0,0,0,0,0,0,-3.8028,-3.8027,-3.7984,-3.813,-3.8158,-3.8163,-3.8243,-3.8191,-3.8241,-3.8226,-3.8174,-3.818,-3.8311,-3.8317,-3.8232,-3.8467,-3.8361,-3.8381,-3.8458,-3.849,-3.8515,-3.8512,-3.811,0,0,0,0,0,-3.8075,-3.8148,-3.8143,-3.8273,-3.8289,-3.8264,-3.8302,-3.8268,-3.8295,-3.8306,-3.8309,-3.8338,-3.8403,-3.8447,-3.8506,-3.8666,-3.8668,-3.8742,-3.8768,-3.8789,-3.8807,-3.8892,-3.8925,-3.8574,-3.8574,-3.8573,0,0,-3.8175,-3.8184,-3.8233,-3.8301,-3.8319,-3.8396,-3.8275,-3.8361,-3.8418,-3.8319,-3.8434,-3.8437,-3.8466,-3.8608,-3.867,-3.8617,-3.8904,-3.8808,-3.8825,-3.8831,-3.8911,-3.8944,-3.8974,-3.8584,-3.8582,-3.8581,0,0,-3.8396,-3.8409,-3.8519,-3.8539,-3.8567,-3.8549,-3.8576,-3.8588,-3.8586,-3.87,-3.8628,-3.8695,-3.8808,-3.8832,-3.8859,-3.9089,-3.9031,-3.9109,-3.9244,-3.9328,-3.9355,-3.938,-3.9462,-3.9493,-3.9127,-3.9128,-3.9128,0,-3.8516,-3.8628,-3.8582,-3.8673,-3.8706,-3.862,-3.8731,-3.8752,-3.8799,-3.8824,-3.8763,-3.8903,-3.8916,-3.9063,-3.9119,-3.9143,-3.9172,-3.9107,-3.9355,-3.9379,-3.9401,-3.9479,-3.951,-3.9137,-3.9136,-3.9135,-3.9134,0,-3.8775,-3.8855,-3.894,-3.8986,-3.9028,-3.9129,-3.9098,-3.9146,-3.9109,-3.9099,-3.9216,-3.9229,-3.929,-3.9322,-3.9287,-3.9464,-3.943,-3.9363,-3.9256,-3.9445,-3.9517,-3.9547,-3.915,-3.9147,-3.9144,-3.9142,0,0,-3.9086,-3.9105,-3.9137,-3.9158,-3.9182,-3.9243,-3.934,-3.9398,-3.9441,-3.9476,-3.9557,-3.9654,-3.9593,-3.9623,-3.959,-3.9664,-3.9846,-3.9588,-3.9588,-3.9636,-4.0042,-4.0093,-4.0128,-3.9808,-3.9813,-3.9818,-4.004,0,-3.9305,-3.9471,-3.9432,-3.9597,-3.967,-3.9589,-3.9674,-3.9699,-3.9691,-3.9752,-3.9744,-3.9814,-3.9727,-3.9745,-3.9815,-3.9809,-3.9927,-3.9793,-3.9883,-3.9887,-3.9879,-4.0166,-4.022,-4.0429,-4.0068,-4.0073,-4.0076,0,-3.9582,-3.9628,-3.98,-3.9813,-3.9842,-3.9919,-3.9969,-4.0028,-4.0055,-4.0044,-4.0079,-4.0031,-4.0128,-4.002,-4.0152,-4.0062,-4.0096,-4.01,-4.0107,-4.0114,-3.9994,-4.0182,-4.0495,-4.0527,-4.0121,-4.0117,-4.0114,0,-3.9793,-3.9896,-4.0013,-4.0032,-4.005,-4.0106,-4.0116,-4.0137,-4.0175,-4.0219,-4.0243,-4.0299,-4.033,-4.0374,-4.0343,-4.0267,-4.0482,-4.037,-4.0476,-4.0477,-4.0525,-4.0523,-4.0849,-4.0547,-4.0547,-4.0546,-4.0546,0,-4.0041,-4.015,-4.0107,-4.0179,-4.0299,-4.0253,-4.0373,-4.0373,-4.0392,-4.0463,-4.0397,-4.0465,-4.0419,-4.0484,-4.046,-4.0574,-4.0588,-4.0583,-4.0576,-4.059,-4.059,-4.0612,-4.0597,-4.0555,-4.0553,-4.0551,-4.055,0,-4.0296,-4.0272,-4.0394,-4.0401,-4.0405,-4.0493,-4.0499,-4.0566,-4.0553,-4.0644,-4.0663,-4.0644,-4.0716,-4.0689,-4.0767,-4.0751,-4.0897,-4.087,-4.0888,-4.0881,-4.0989,-4.0979,-4.134,-4.1386,-4.1055,-4.1058,-4.106,0,-4.0457,-4.0538,-4.0554,-4.0597,-4.0612,-4.0681,-4.0719,-4.0677,-4.072,-4.0757,-4.082,-4.0886,-4.0937,-4.1057,-4.1051,-4.111,-4.1084,-4.1207,-4.1093,-4.1104,-4.1087,-4.1082,-4.1091,-4.123,-4.1234,-4.1237,-4.1239,0,-4.0745,-4.0729,-4.0786,-4.084,-4.0888,-4.0928,-4.0963,-4.1002,-4.0962,-4.1013,-4.1086,-4.1126,-4.1205,-4.1272,-4.1325,-4.1336,-4.1282,-4.1275,-4.1303,-4.1318,-4.1325,-4.1323,-4.0951,-4.1267,-4.1264,-4.1262,-4.1261,-4.126,-4.0957,-4.1026,-4.1048,-4.1115,-4.1136,-4.1171,-4.1234,-4.1229,-4.1289,-4.135,-4.1322,-4.1407,-4.1432,-4.1497,-4.1516,-4.1582,-4.1534,-4.1574,-4.1584,-4.1595,-4.1609,-4.1314,-4.1591,-4.159,-4.159,-4.1589,-4.1588,0,-4.1242,-4.1252,-4.1314,-4.1364,-4.1417,-4.136,-4.1396,-4.1444,-4.1519,-4.1547,-4.1598,-4.1683,-4.1748,-4.1747,-4.1807,-4.1861,-4.1837,-4.1878,-4.1874,-4.1877,-4.1648,-4.1618,-4.1896,-4.1896,-4.1896,-4.1896,-4.1895,-4.1895,-4.1396,-4.151,-4.1497,-4.1621,-4.163,-4.1713,-4.1738,-4.1769,-4.1791,-4.1888,-4.1942,-4.194,-4.1956,-4.2017,-4.2075,-4.2073,-4.2098,-4.2149,-4.2138,-4.1924,-4.1893,-4.1864,-4.1836,-4.2155,-4.2155,-4.2361,-4.2363,-4.2365]},{"header":{"parameterUnit":"m.s-1","parameterCategory":1,"la1":30.2991,"la2":30.254,"lo1":-89.0895,"lo2":-89.0444,"dy":0.0017,"dx":0.0017,"nx":28,"ny":28,"refTime":"2024-10-06T03:00:00:Z","depth":0,"parameterNumber":3,"parameterNumberName":"V-component_of_WINDS"},"data":[0,0,0,0,0,0,0,0,0,0,0,0,0,0,0,0,0,0,0,0,0,0,0,0,0,0,0,0,0,0,0,0,0,0,0,0,0,0,0,0,0,0,0,0,0,0,0,0,0,0,0,0,0,0,0,0,0,0,-3.227,-3.227,0,-3.2246,-3.2245,-3.2245,-3.2167,-3.2165,-3.2163,-3.2162,-3.2138,-3.2139,-3.214,0,0,0,0,0,0,0,0,0,0,0,0,0,-3.225,-3.2251,-3.227,-3.227,-3.227,-3.2246,-3.2245,-3.2245,-3.2167,-3.2165,-3.2163,-3.2161,-3.2138,-3.2139,-3.214,0,0,0,0,0,0,0,0,0,0,0,0,0,-3.2246,-3.2251,-3.227,-3.2228,-3.2224,-3.2246,-3.2245,-3.2245,-3.2168,-3.2165,-3.2162,-3.216,-3.2138,-3.2139,-3.214,-3.2202,0,0,-3.2145,-3.2146,0,0,0,0,0,0,0,0,-3.2246,-3.2247,-3.2234,-3.2231,-3.2226,-3.2207,-3.223,-3.2231,-3.2168,-3.2189,-3.2162,-3.2159,-3.2163,-3.2162,-3.2164,-3.2201,-3.22,-3.2145,-3.2146,-3.2147,-3.2147,0,0,0,0,0,0,0,-3.2247,-3.2247,-3.226,-3.2234,-3.2229,-3.221,-3.2207,-3.2229,-3.2191,-3.2187,-3.2181,-3.2179,-3.216,-3.2162,-3.2162,-3.2199,-3.2145,-3.2146,-3.2147,-3.2148,-3.2285,-3.2288,0,0,0,0,0,0,-3.2253,-3.2248,-3.2261,-3.226,-3.223,-3.2213,-3.2209,-3.2216,-3.2191,-3.2184,-3.2182,-3.2176,-3.2161,-3.2161,-3.2161,-3.2231,-3.2147,-3.2148,-3.2149,-3.2282,-3.2286,-3.2289,0,0,0,0,0,0,-3.2253,-3.2255,-3.2262,-3.2252,-3.2252,-3.2216,-3.2224,-3.2217,-3.2218,-3.2187,-3.2179,-3.2191,-3.2159,-3.2159,-3.2192,-3.2229,-3.2149,-3.215,-3.2279,-3.2283,-3.2287,-3.2372,0,0,0,0,0,0,-3.2252,-3.2255,-3.2278,-3.2253,-3.2253,-3.2294,-3.2226,-3.2218,-3.2221,-3.2213,-3.2193,-3.2187,-3.2157,-3.219,-3.2194,-3.223,-3.2151,-3.2276,-3.2281,-3.2286,-3.2365,-3.2378,-3.2389,0,0,0,0,0,-3.2252,-3.2303,-3.228,-3.2282,-3.228,-3.2296,-3.2295,-3.2259,-3.2224,-3.2247,-3.2226,-3.2188,-3.2225,-3.2194,-3.2197,-3.2235,-3.2273,-3.2279,-3.2285,-3.236,-3.2375,-3.2389,0,0,0,0,0,0,-3.2334,-3.2299,-3.2273,-3.2318,-3.231,-3.2283,-3.231,-3.2277,-3.228,-3.2272,-3.2228,-3.2224,-3.2263,-3.2252,-3.2219,-3.2292,-3.2242,-3.2249,-3.2298,-3.2313,-3.2324,-3.2326,-3.2153,0,0,0,0,0,-3.2357,-3.2372,-3.2341,-3.2384,-3.2381,-3.2347,-3.2352,-3.2325,-3.2315,-3.2312,-3.2294,-3.2287,-3.2296,-3.2304,-3.2311,-3.2363,-3.2358,-3.239,-3.2402,-3.2412,-3.2419,-3.2445,-3.2459,-3.2309,-3.2309,-3.2309,0,0,-3.2406,-3.2389,-3.2401,-3.24,-3.2391,-3.2408,-3.2345,-3.2365,-3.2377,-3.2315,-3.2345,-3.2331,-3.232,-3.2363,-3.2381,-3.2355,-3.2459,-3.242,-3.2428,-3.2429,-3.2452,-3.2467,-3.2479,-3.2313,-3.2312,-3.2312,0,0,-3.2502,-3.2491,-3.2525,-3.2517,-3.2504,-3.248,-3.2488,-3.2465,-3.2454,-3.2483,-3.2436,-3.245,-3.2468,-3.2462,-3.2461,-3.2554,-3.2519,-3.2558,-3.262,-3.2646,-3.2658,-3.2668,-3.2701,-3.2713,-3.2565,-3.2565,-3.2565,0,-3.2564,-3.2587,-3.2546,-3.2569,-3.257,-3.2514,-3.2548,-3.2543,-3.2533,-3.2535,-3.2506,-3.2527,-3.2515,-3.2555,-3.2578,-3.258,-3.2587,-3.256,-3.2659,-3.2669,-3.2678,-3.2709,-3.2721,-3.257,-3.2569,-3.2569,-3.2568,0,-3.2663,-3.268,-3.2709,-3.27,-3.2704,-3.2732,-3.2696,-3.2705,-3.2678,-3.2657,-3.2687,-3.2671,-3.2674,-3.2682,-3.2655,-3.2718,-3.2702,-3.2667,-3.2616,-3.2698,-3.2726,-3.2738,-3.2577,-3.2575,-3.2574,-3.2572,0,0,-3.2811,-3.2779,-3.279,-3.2785,-3.2766,-3.2778,-3.2804,-3.2806,-3.2814,-3.281,-3.283,-3.2846,-3.2813,-3.2812,-3.2784,-3.2807,-3.2882,-3.2769,-3.2768,-3.279,-3.2949,-3.2976,-3.299,-3.2858,-3.286,-3.2862,-3.295,0,-3.2902,-3.2944,-3.2908,-3.2956,-3.2971,-3.2918,-3.294,-3.2931,-3.2912,-3.2922,-3.2902,-3.2914,-3.287,-3.2869,-3.2889,-3.2868,-3.2913,-3.2862,-3.2877,-3.2878,-3.2881,-3.3005,-3.3033,-3.3117,-3.2961,-3.2963,-3.2964,0,-3.3014,-3.3013,-3.3063,-3.304,-3.3045,-3.3065,-3.3064,-3.3074,-3.3062,-3.3047,-3.3046,-3.3012,-3.3035,-3.2986,-3.3018,-3.2984,-3.2988,-3.2978,-3.2981,-3.2981,-3.2926,-3.3008,-3.3143,-3.3155,-3.2981,-3.298,-3.2978,0,-3.3116,-3.3128,-3.3159,-3.3156,-3.313,-3.3146,-3.3136,-3.3122,-3.3125,-3.3124,-3.3125,-3.3128,-3.3129,-3.3131,-3.3098,-3.3065,-3.3135,-3.3082,-3.3123,-3.3124,-3.314,-3.3139,-3.3277,-3.3143,-3.3143,-3.3143,-3.3143,0,-3.3221,-3.3254,-3.3204,-3.3223,-3.3258,-3.3216,-3.3252,-3.3236,-3.3224,-3.3239,-3.3194,-3.3209,-3.3165,-3.3176,-3.315,-3.318,-3.3182,-3.317,-3.3163,-3.3174,-3.3175,-3.3176,-3.3169,-3.3146,-3.3145,-3.3145,-3.3144,0,-3.3342,-3.3309,-3.334,-3.3312,-3.3306,-3.3333,-3.3309,-3.3326,-3.3304,-3.3324,-3.3326,-3.3292,-3.3302,-3.327,-3.3275,-3.3258,-3.3302,-3.3286,-3.3306,-3.3301,-3.3343,-3.3339,-3.3486,-3.3503,-3.3359,-3.336,-3.3361,0,-3.3411,-3.3434,-3.3409,-3.3415,-3.3407,-3.3419,-3.3421,-3.3381,-3.3386,-3.3374,-3.3393,-3.3399,-3.3402,-3.3421,-3.3397,-3.3401,-3.3384,-3.3435,-3.3384,-3.3394,-3.3384,-3.3383,-3.3385,-3.3445,-3.3447,-3.3449,-3.345,0,-3.3536,-3.3519,-3.3524,-3.3524,-3.3528,-3.3527,-3.3522,-3.353,-3.3487,-3.3494,-3.3504,-3.3506,-3.3511,-3.3518,-3.3516,-3.3506,-3.3471,-3.3466,-3.3475,-3.3487,-3.3497,-3.3492,-3.3334,-3.3463,-3.3461,-3.346,-3.346,-3.3459,-3.3633,-3.3651,-3.3635,-3.3643,-3.3634,-3.3631,-3.3645,-3.3624,-3.3631,-3.3631,-3.3607,-3.3622,-3.3609,-3.3603,-3.3597,-3.3608,-3.3584,-3.3598,-3.3601,-3.3605,-3.3612,-3.3496,-3.3607,-3.3607,-3.3606,-3.3606,-3.3606,0,-3.3755,-3.3743,-3.375,-3.3744,-3.375,-3.3715,-3.3707,-3.3715,-3.3728,-3.3719,-3.3722,-3.3733,-3.3739,-3.3716,-3.3718,-3.3732,-3.3716,-3.3734,-3.3732,-3.3731,-3.3634,-3.3625,-3.3747,-3.3747,-3.3747,-3.3747,-3.3747,-3.3747,-3.382,-3.3848,-3.3829,-3.3853,-3.384,-3.3853,-3.3852,-3.3848,-3.3841,-3.3854,-3.3859,-3.3843,-3.3828,-3.383,-3.3834,-3.3827,-3.383,-3.3854,-3.3841,-3.3751,-3.3737,-3.3724,-3.3716,-3.3855,-3.3855,-3.3937,-3.3938,-3.3938]}]]